Location: Unspecified
(0.0000°N, 0.0000°E)
Time: 19:03:26
(UTC+00:00)

Vanguard 2 - Pass Details

Date: 23 November 2019
Orbit: 553 x 2938 km, 32.9° (Epoch: 08 December)

Event Time Altitude Azimuth Distance (km) Brightness Sun altitude
Rises 16:09:58 0° 285° (WNW) 2,716 11.2 22.5°
Reaches altitude 10° 16:12:12 10° 274° (W) 1,876 10.8 22.0°
Maximum altitude 16:15:54 32° 210° (SSW) 1,134 9.5 21.1°
Drops below altitude 10° 16:20:43 10° 147° (SSE) 2,454 10.1 20.0°
Sets 16:24:04 0° 137° (SE) 3,732 10.8 19.2°
